Location: Poughquag
(41.6090°N, 73.6820°W)
Time: 02:36:27
(UTC-04:00)

Vanguard 1 Rocket - Pass Details

Date: 05 June 2020
Orbit: 653 x 4224 km, 34.3° (Epoch: 06 July)

Event Time Altitude Azimuth Distance (km) Brightness Sun altitude
Rises 06:51:27 0° 275° (W) 5,341 10.8 14.5°
Reaches altitude 10° 06:58:36 10° 247° (WSW) 3,419 9.8 15.7°
Maximum altitude 07:00:50 11° 230° (SW) 3,043 9.6 16.1°
Drops below altitude 10° 07:02:48 10° 214° (SSW) 2,901 9.6 16.5°
Sets 07:07:16 0° 178° (S) 3,363 10.2 17.3°
